Simultaneous Nadir Overpasses (SNOs) Predictions

Prediction of SNOs between METOP-B and TERRA Satellite Orbit:

Table of predicted SNOs for the next 14.0 days since TLE Epoch: 2/1/2014
Index Date (METOP-B) Time (METOP-B) Lat,Lon (METOP-B) SZA (METOP-B ) Date (TERRA) Time (TERRA) Lat,Lon (TERRA) SZA (TERRA ) Distance(km) Time Diff (sec)
1 02/02/2014 12:38:43 81.29, 37.23 100.31 02/02/2014 12:38:54 81.30, 37.22 100.32 0.78 11
2 02/02/2014 13:29:23 -81.29,-155.40 79.70 02/02/2014 13:28:21 -81.29,-155.35 79.73 1.10 62
3 02/05/2014 07:22:24 -81.29, -64.20 80.58 02/05/2014 07:22:57 -81.28, -64.15 80.57 1.03 33
4 02/05/2014 08:13:04 81.29, 103.70 99.48 02/05/2014 08:12:22 81.29, 103.64 99.45 1.29 42
5 02/08/2014 02:06:04 81.29,-164.75 98.61 02/08/2014 02:06:12 81.28,-164.90 98.59 2.61 8
6 02/08/2014 02:56:43 -81.30, 3.00 81.36 02/08/2014 02:55:37 -81.29, 2.92 81.40 1.33 66
7 02/10/2014 19:59:03 81.29, -72.86 97.74 02/10/2014 19:59:16 81.29, -73.02 97.73 2.64 13
8 02/10/2014 20:49:43 -81.29, 94.50 82.27 02/10/2014 20:48:41 -81.29, 94.63 82.29 2.05 62
9 02/13/2014 13:01:21 -81.29,-148.91 83.21 02/13/2014 13:02:11 -81.28,-149.00 83.21 1.83 50




NCC Satellite Simultaneous Nadir Overpasses (SNOs) Prediction Service
